| time (UTC) | temp F | wind direction | speed MPH | gust MPH | rain 1hr in | rain 24hr in | rain mn in | humidity % | barometer mb |
| 20260502234551 | 70 | 88 | 7.0 | 11.0 | 0.00 | 0.15 | 0.00 | 42 | 1019.7 |
| 20260502233052 | 70 | 105 | 6.0 | 11.0 | 0.00 | 0.15 | 0.00 | 37 | 1019.7 |
| 20260502231556 | 70 | 139 | 4.0 | 10.0 | 0.00 | 0.15 | 0.00 | 40 | 1019.6 |
| 20260502230050 | 70 | 78 | 7.0 | 15.0 | 0.00 | 0.15 | 0.00 | 41 | 1019.6 |
| 20260502224550 | 70 | 101 | 5.0 | 13.0 | 0.00 | 0.15 | 0.00 | 39 | 1019.7 |
| 20260502223053 | 70 | 121 | 5.0 | 14.0 | 0.00 | 0.15 | 0.00 | 42 | 1019.8 |
| 20260502221550 | 70 | 101 | 9.0 | 15.0 | 0.00 | 0.15 | 0.00 | 43 | 1019.9 |
| 20260502220054 | 70 | 111 | 7.0 | 17.0 | 0.00 | 0.15 | 0.00 | 41 | 1020.2 |
| 20260502214556 | 69 | 126 | 5.0 | 13.0 | 0.00 | 0.15 | 0.00 | 41 | 1020.4 |
| 20260502213051 | 69 | 86 | 3.0 | 12.0 | 0.00 | 0.15 | 0.00 | 44 | 1020.8 |
| 20260502211552 | 69 | 37 | 0.0 | 9.0 | 0.00 | 0.15 | 0.00 | 40 | 1021.2 |
| 20260502210050 | 69 | 95 | 4.0 | 10.0 | 0.00 | 0.15 | 0.00 | 42 | 1021.6 |
| 20260502204559 | 68 | 105 | 3.0 | 8.0 | 0.00 | 0.15 | 0.00 | 42 | 1021.9 |
| 20260502203109 | 68 | 162 | 5.0 | 10.0 | 0.00 | 0.15 | 0.00 | 39 | 1022.0 |
| 20260502201549 | 67 | 89 | 6.0 | 10.0 | 0.00 | 0.15 | 0.00 | 41 | 1022.1 |
| 20260502200050 | 67 | 143 | 8.0 | 17.0 | 0.00 | 0.15 | 0.00 | 43 | 1022.2 |
| 20260502194547 | 66 | 163 | 3.0 | 14.0 | 0.00 | 0.15 | 0.00 | 42 | 1022.3 |
| 20260502193050 | 66 | 91 | 4.0 | 14.0 | 0.00 | 0.15 | 0.00 | 50 | 1022.4 |
| 20260502191555 | 66 | 70 | 3.0 | 14.0 | 0.00 | 0.15 | 0.00 | 44 | 1022.7 |
| 20260502190053 | 65 | 136 | 6.0 | 12.0 | 0.00 | 0.15 | 0.00 | 47 | 1023.0 |
| 20260502184548 | 65 | 0 | 4.0 | 11.0 | 0.00 | 0.15 | 0.00 | 45 | 1023.2 |
| 20260502183050 | 65 | 168 | 2.0 | 13.0 | 0.00 | 0.15 | 0.00 | 45 | 1023.4 |
| 20260502181606 | 64 | 139 | 5.0 | 14.0 | 0.00 | 0.15 | 0.00 | 48 | 1023.7 |
| 20260502163055 | 60 | 119 | 4.0 | 10.0 | 0.00 | 0.16 | 0.00 | 57 | 1024.5 |
| 20260502161553 | 60 | 126 | 4.0 | 11.0 | 0.00 | 0.16 | 0.00 | 60 | 1024.5 |
| 20260502151602 | 58 | 109 | 3.0 | 11.0 | 0.00 | 0.16 | 0.00 | 63 | 1024.6 |
| 20260502123051 | 50 | 0 | 0.0 | 0.0 | 0.00 | 0.69 | 0.00 | 86 | 1023.1 |
| 20260502121551 | 49 | 0 | 0.0 | 0.0 | 0.00 | 0.69 | 0.00 | 87 | 1022.9 |
| 20260502114555 | 49 | 0 | 0.0 | 0.0 | 0.00 | 0.69 | 0.00 | 87 | 1022.5 |
| 20260502113056 | 49 | 0 | 0.0 | 0.0 | 0.00 | 0.69 | 0.00 | 86 | 1022.3 |
| 20260502111553 | 50 | 0 | 0.0 | 0.0 | 0.00 | 0.69 | 0.00 | 84 | 1022.2 |
| 20260502110100 | 51 | 0 | 0.0 | 0.0 | 0.00 | 0.69 | 0.00 | 84 | 1022.3 |
| 20260502104549 | 51 | 0 | 0.0 | 0.0 | 0.00 | 0.69 | 0.00 | 83 | 1022.4 |
| 20260502103055 | 52 | 0 | 0.0 | 0.0 | 0.00 | 0.69 | 0.00 | 84 | 1022.5 |
| 20260502101552 | 51 | 0 | 0.0 | 0.0 | 0.00 | 0.69 | 0.00 | 84 | 1022.5 |
| 20260502080105 | 52 | 348 | 2.0 | 5.0 | 0.00 | 0.70 | 0.00 | 84 | 1022.1 |
| 20260502070052 | 53 | 16 | 3.0 | 5.0 | 0.00 | 0.70 | 0.00 | 84 | 1022.0 |
| 20260502064600 | 53 | 28 | 4.0 | 8.0 | 0.00 | 0.70 | 0.00 | 84 | 1022.0 |
| 20260502063050 | 53 | 24 | 4.0 | 8.0 | 0.00 | 0.70 | 0.00 | 83 | 1022.0 |
| 20260502061545 | 53 | 11 | 4.0 | 6.0 | 0.00 | 0.70 | 0.00 | 84 | 1022.0 |
| 20260502060050 | 53 | 351 | 3.0 | 6.0 | 0.00 | 0.70 | 0.00 | 84 | 1022.1 |
| 20260502054557 | 53 | 355 | 3.0 | 6.0 | 0.00 | 0.70 | 0.00 | 84 | 1022.0 |
| 20260502053053 | 53 | 5 | 3.0 | 6.0 | 0.00 | 0.70 | 0.00 | 84 | 1022.0 |
| 20260502051551 | 53 | 21 | 4.0 | 7.0 | 0.00 | 0.70 | 0.00 | 83 | 1021.9 |
| 20260502050055 | 53 | 25 | 4.0 | 8.0 | 0.00 | 0.70 | 0.00 | 83 | 1022.0 |
| 20260502044550 | 53 | 34 | 3.0 | 6.0 | 0.00 | 0.70 | 0.70 | 83 | 1021.9 |
| 20260502043056 | 53 | 332 | 3.0 | 9.0 | 0.00 | 0.70 | 0.70 | 82 | 1021.5 |
| 20260502041554 | 53 | 338 | 5.0 | 9.0 | 0.00 | 0.70 | 0.70 | 82 | 1021.2 |
| 20260502034551 | 54 | 340 | 0.0 | 2.0 | 0.00 | 0.70 | 0.70 | 85 | 1020.7 |
| 20260502033052 | 54 | 38 | 2.0 | 5.0 | 0.01 | 0.70 | 0.70 | 84 | 1020.6 |
| 20260502031614 | 54 | 62 | 4.0 | 8.0 | 0.01 | 0.70 | 0.70 | 83 | 1020.4 |
| 20260502030052 | 54 | 58 | 6.0 | 12.0 | 0.05 | 0.70 | 0.70 | 84 | 1020.5 |
| 20260502024548 | 54 | 40 | 7.0 | 12.0 | 0.09 | 0.70 | 0.70 | 84 | 1020.1 |
| 20260502023054 | 54 | 65 | 8.0 | 14.0 | 0.11 | 0.69 | 0.69 | 85 | 1019.7 |
| 20260502021550 | 54 | 59 | 8.0 | 15.0 | 0.11 | 0.69 | 0.69 | 85 | 1019.1 |
| 20260502020106 | 54 | 64 | 8.0 | 13.0 | 0.07 | 0.65 | 0.65 | 84 | 1018.9 |
| 20260502014553 | 55 | 60 | 9.0 | 16.0 | 0.03 | 0.61 | 0.61 | 81 | 1018.5 |
| 20260502013050 | 56 | 74 | 11.0 | 18.0 | 0.02 | 0.58 | 0.58 | 81 | 1018.0 |
| 20260502011552 | 57 | 71 | 11.0 | 16.0 | 0.02 | 0.58 | 0.58 | 81 | 1017.7 |
| 20260502010049 | 57 | 71 | 7.0 | 13.0 | 0.02 | 0.58 | 0.58 | 82 | 1017.3 |
| 20260502004554 | 57 | 76 | 10.0 | 16.0 | 0.02 | 0.58 | 0.58 | 81 | 1016.9 |
| 20260502003052 | 58 | 71 | 9.0 | 16.0 | 0.00 | 0.56 | 0.56 | 79 | 1016.6 |
| 20260502001622 | 59 | 86 | 6.0 | 14.0 | 0.00 | 0.56 | 0.56 | 79 | 1016.4 |
| 20260502000047 | 59 | 91 | 7.0 | 11.0 | 0.01 | 0.56 | 0.56 | 80 | 1016.0 |